Location: Paris
(48.6709°N, 2.3750°E)
Time: 18:07:02
(UTC+02:00)

STARS - Pass Details

Date: 02 July 2022
Orbit: 620 x 637 km, 98.2° (Epoch: 06 August)

Event Time Altitude Azimuth Distance (km) Brightness Sun altitude
Rises 23:19:56 0° 30° (NNE) 2,931 ? -10.4°
Reaches altitude 10° 23:23:06 10° 55° (NE) 2,013 ? -10.7°
Maximum altitude 23:25:32 15° 89° (E) 1,718 ? -11.0°
Enters shadow 23:27:21 12° 116° (ESE) 1,878 ? -11.1°
